Location: Bonn
(50.7330°N, 7.1000°E)
Time: 09:16:52
(UTC+01:00)

Daily predictions for brighter satellites

Satellite Brightness Start Highest point End
(mag) Time Altitude Azimuth Time Altitude Azimuth Time Altitude Azimuth
NOSS 2-3 (C) 4.1 17:00:05 10° SSW 17:04:50 69° SE 17:10:35 10° NE
Cosmos 724 4.3 17:01:25 10° NW 17:07:11 61° NE 17:12:56 10° SE
SL-24 R/B 4.5 17:02:42 10° N 17:07:36 86° W 17:12:26 10° S
Cosmos 1455 Rocket 3.5 17:04:05 10° N 17:08:15 39° ENE 17:12:23 10° SE
CSL-04 Debris 4.4 17:04:40 10° SE 17:09:48 47° ENE 17:14:58 10° N
COSMOS 2455 4.5 17:06:21 10° NNW 17:10:15 17° N 17:14:10 10° NE
Cosmos 1666 3.1 17:07:19 10° N 17:10:54 40° ENE 17:14:27 10° SE
Cosmos 2263 Rocket 3.9 17:09:00 10° N 17:11:40 13° NNE 17:14:19 10° NE
Cosmos 1544 Rocket 3.8 17:08:29 10° N 17:12:42 45° ENE 17:16:51 10° SSE
Cosmos 2142 Rocket 4.5 17:09:57 10° S 17:16:04 72° E 17:22:11 10° NNE
Okean 1 3.3 17:14:36 10° S 17:18:32 66° E 17:22:30 10° NNE
Cosmos 1484 Rocket 3.1 17:15:52 10° SE 17:19:42 46° ENE 17:23:34 10° N
Cosmos 1812 3.5 17:17:24 10° SSW 17:21:12 53° WNW 17:25:02 10° N
Meteor 1-18 Rocket 4.2 17:16:55 10° S 17:22:30 81° E 17:28:15 10° NNE
Cosmos 2279 Rocket 4.1 17:16:46 10° S 17:22:53 58° E 17:29:01 10° NNE
YAOGAN 1 3.4 17:21:00 10° SE 17:24:44 29° ENE 17:28:30 10° N
CSL-04 Rocket 3.7 17:20:06 10° SSE 17:25:31 67° ENE 17:31:01 10° NNW
Cosmos 2150 Rocket 4.1 17:20:34 10° SSW 17:25:59 69° ESE 17:31:24 10° NNE
Gblst 52 Del rocket 4.3 17:22:35 10° WNW 17:28:07 84° SSW 17:34:03 10° ESE
IRAS Rocket 4.2 17:23:26 10° SSE 17:28:54 73° ENE 17:34:23 10° NNW
USA 238 DEB 4.1 17:22:52 10° NW 17:29:58 77° SW 17:37:08 10° SSE
USA 238 4.0 17:22:58 10° NW 17:30:04 77° SW 17:37:14 10° SSE
Cosmos 2369 Rocket 3.9 17:28:36 10° W 17:33:05 24° NW 17:37:35 10° NNE
USA 161 1.5 17:30:32 10° NNE 17:33:27 87° W 17:36:27 10° SSW
Cosmos 1975 3.3 17:29:32 10° NNW 17:33:33 66° W 17:37:34 10° S
Cosmos 1656 Rocket 4.3 17:29:01 10° SW 17:34:25 53° NW 17:39:47 10° NNE
CZ-2C R/B 3.4 17:29:45 10° S 17:34:51 55° W 17:39:53 10° NNW
MSX 4.4 17:29:17 10° S 17:35:00 64° WSW 17:40:45 10° NNW
COSMO-SKYMED 1 4.1 17:33:57 13° ENE 17:35:55 17° E 17:38:45 10° SE
Cosmos 1697 Rocket 4.0 17:32:04 10° SE 17:35:58 20° E 17:38:49 14° ENE
AQUARIUS 4.1 17:32:26 10° SSE 17:36:53 64° ENE 17:41:21 10° N
Abrixas rocket 2.8 17:38:53 10° WSW 17:42:03 50° S 17:44:30 15° E
SJ 16-02 2.3 17:38:47 10° SSE 17:42:33 29° E 17:45:23 15° NE
Cosmos 2082 3.7 17:38:35 10° NNW 17:44:15 85° ENE 17:49:53 10° SSE
Meteor 1-19 Rocket 4.3 17:41:09 10° S 17:46:46 61° E 17:52:31 10° NNE
Cosmos 1975 Rocket 3.4 17:42:18 10° SSW 17:46:47 73° WNW 17:51:17 10° N
Radarsat 4.5 17:42:11 10° SSE 17:47:22 78° ENE 17:52:37 10° NNW
Meteor 1-28 Rocket 3.7 17:44:27 11° NNE 17:47:55 39° E 17:51:29 10° SSE
CZ-2C R/B 4.4 17:44:33 10° NNE 17:48:52 35° E 17:53:13 10° SSE
ISS -0.6 17:47:53 10° WSW 17:49:44 14° SW 17:51:34 10° S
NOSS 2-3 (D) 4.3 17:44:55 10° SW 17:49:45 68° NW 17:54:52 14° NE
SPOT 3 Rocket 4.1 17:45:11 10° SE 17:49:48 34° ENE 17:54:25 10° N
Ariane Rocket 3.0 17:48:40 10° SSE 17:53:44 86° WSW 17:58:50 10° NNW
DNEPR-1 R/B 4.2 17:49:08 10° NW 17:53:49 50° NE 17:59:23 10° ESE
Cosmos 494 Rocket 4.5 17:49:52 10° NNW 17:54:49 38° NE 17:59:42 10° SE
Cosmos 1898 Rocket 4.4 17:50:07 10° SW 17:55:11 48° WNW 18:00:19 10° NNE
Cosmos 2251 Rocket 4.3 17:50:45 10° N 17:55:23 29° NE 17:59:43 11° ESE
Cosmos 2227 Rocket 2.6 17:49:45 10° NNW 17:55:24 68° WSW 18:01:00 10° SSE
NOSS 3-2 (A) 4.1 17:50:51 10° NW 17:58:13 84° SW 18:06:21 10° SE
Cosmos 1743 3.6 17:55:27 10° NNW 17:59:15 52° W 18:03:02 10° S
Cosmos 1269 Rocket 4.0 17:56:03 10° NNW 18:01:24 80° ENE 18:06:43 10° SSE
CORIOLIS 4.2 17:56:46 10° SSE 18:02:11 87° WSW 18:07:37 10° NNW
Cosmos 1937 Rocket 4.1 17:58:42 10° SW 18:03:46 54° WNW 18:08:50 10° NNE
CZ-4 R/B 1.3 18:00:57 10° SSE 18:04:52 90° NNW 18:08:53 10° NNW
Cosmos 1025 Rocket 4.0 18:02:28 10° SE 18:05:59 25° E 18:06:24 25° ENE
NOSS 3-2 (C) 4.0 17:59:01 10° NW 18:06:23 88° NE 18:14:31 10° SE
Cosmos 1125 Rocket 3.7 18:01:36 10° S 18:06:44 52° ESE 18:10:34 18° NE
SMAP 3.5 18:03:45 10° S 18:08:22 66° WSW 18:13:02 10° NNW
Meteor 2-9 Rocket 4.2 18:03:04 10° NNW 18:08:38 85° W 18:14:02 10° S
Cosmos 1048 Rocket 4.3 18:04:37 10° NNW 18:10:01 75° WSW 18:15:23 10° SSE
ATLAS 3B R/B 3.7 18:04:30 10° NW 18:10:53 47° WSW 18:17:05 10° SSE
Cosmos 1943 Rocket 4.2 18:09:30 10° W 18:13:39 20° NW 18:17:50 10° NNE
Cosmos 1536 Rocket 3.4 18:10:39 10° S 18:14:59 75° E 18:19:13 11° NNE
Landsat 4 4.1 18:15:18 31° ENE 18:16:30 40° E 18:20:07 10° S
ATLAS 2AS CENTAUR R/B 3.1 18:09:09 10° SW 18:17:06 85° NW 18:23:35 18° NE
Cosmos 1980 Rocket 3.2 18:12:43 10° SSE 18:17:10 24° ESE 18:17:48 24° E
Cosmos 2266 Rocket 3.9 18:11:59 10° N 18:18:05 88° W 18:24:16 10° S
Cosmos 372 Rocket 4.0 18:14:30 10° S 18:19:38 63° ESE 18:23:02 21° NE
ERS-2 2.1 18:17:22 10° SSE 18:20:58 57° ENE 18:24:36 10° N
Cosmos 2297 Rocket 3.1 18:16:19 10° NW 18:21:48 51° WSW 18:27:14 10° S
ALOS 2.3 18:18:37 10° SSE 18:23:11 58° ENE 18:27:47 10° N
MOS 1 4.2 18:17:40 10° SSE 18:23:20 75° ENE 18:29:01 10° NNW
Meteor 1-23 Rocket 4.3 18:18:14 10° S 18:23:51 59° E 18:29:20 10° NNE
SKYMED 2 3.8 18:22:33 29° NE 18:24:22 45° E 18:28:32 10° S
Okean 2 3.8 18:22:18 10° SSE 18:26:05 37° E 18:26:06 37° E
Cosmos 1656 3.6 18:22:36 10° SSW 18:28:05 65° ESE 18:31:11 26° NE
Cosmos 1606 Rocket 4.3 18:24:53 10° N 18:27:57 32° NE 18:27:57 32° NE
MONITOR-E 3.9 18:26:03 10° SSE 18:29:06 73° ENE 18:32:09 10° N
NOSS 8 (A) 4.3 18:26:25 10° SSW 18:29:36 61° SE 18:29:55 57° E
NOSS 3-4 (A) 3.8 18:32:35 10° SSW 18:38:28 45° ESE 18:40:32 34° ENE
NOSS 3-4 (C) 3.8 18:32:42 10° S 18:38:34 44° ESE 18:40:36 34° ENE
Cosmos 2227 4.2 18:36:12 10° NNW 18:41:57 62° NE 18:45:43 22° SE
MTI 4.0 18:44:16 58° S 18:44:16 58° S 18:46:59 10° S
NOAA 12 4.0 18:42:13 10° SSE 18:47:29 88° ENE 18:52:46 10° NNW
CENTAUR R/B 3.0 18:43:01 10° NW 18:50:43 80° NE 18:57:28 17° SE
Meteor 2-4 Rocket 4.1 18:47:57 10° SSW 18:53:17 60° WNW 18:58:36 10° N
USA 116 4.0 18:53:10 42° NW 18:53:41 48° WNW 18:56:41 10° SW
Cosmos 1244 Rocket 4.3 18:47:43 10° N 18:53:55 82° E 19:00:06 10° SSE
Cosmos 2263 Rocket 2.7 18:52:01 10° NNW 18:56:40 38° NE 18:56:40 38° NE
COSMOS 2455 3.7 18:52:45 10° NNW 18:57:57 32° NNE 18:57:57 32° NNE
YAOGAN 1 4.1 18:56:45 10° SSW 19:00:45 36° W 19:04:47 10° NNW
FENGYUN 3A 3.8 18:56:05 10° S 19:01:26 73° WSW 19:06:50 10° NNW
Cosmos 2369 3.9 18:57:34 10° SW 19:03:14 68° WNW 19:06:08 30° NNE
Cosmos 2278 3.9 18:57:49 10° SW 19:03:30 70° WNW 19:06:18 31° NNE
DMSP B5D1-3 4.4 19:05:00 60° NE 19:05:43 68° ESE 19:10:49 10° S
Cosmos 2360 4.4 19:02:31 10° S 19:07:42 50° ESE 19:07:42 50° ESE
Meteor 2-11 Rocket 4.4 19:05:35 10° S 19:11:45 87° WNW 19:17:29 12° N
COSMO-SKYMED 1 2.9 19:11:10 41° N 19:12:30 63° WNW 19:16:47 10° SSW
SL-08 R/B 4.3 19:08:07 10° N 19:14:26 78° E 19:20:39 10° SSE
Abrixas rocket 4.3 19:15:14 10° W 19:16:58 27° WSW 19:16:58 27° WSW
Cosmos 1553 Rocket 3.9 19:12:56 10° S 19:19:15 64° E 19:20:11 58° NE
Cosmos 1697 Rocket 2.7 19:13:36 10° SSW 19:19:16 81° WNW 19:20:35 55° NNE
SJ 16-02 2.6 19:16:57 10° SW 19:21:03 37° WNW 19:22:25 30° NNW
Cosmos 1417 Rocket 4.3 19:16:22 10° S 19:22:31 76° E 19:24:30 46° NNE
Cosmos 1745 Rocket 3.8 19:21:00 10° N 19:27:13 79° E 19:33:29 10° SSE
Cosmos 2251 Rocket 4.1 19:32:49 10° NNW 19:38:00 54° WSW 19:40:22 30° S
Cosmos 1241 Rocket 4.5 19:34:40 10° SW 19:41:01 76° NW 19:41:43 68° N
Cosmos 1025 Rocket 4.3 19:39:25 10° SW 19:43:20 37° WNW 19:43:20 37° WNW
Gbstr 26 Del rocket 4.1 19:38:55 10° WSW 19:46:46 77° SSE 19:46:58 76° SE
Cosmos 1980 Rocket 2.7 19:55:01 10° SW 19:59:36 55° WSW 19:59:36 55° WSW
ATLAS 2AS CENTAUR R/B 3.9 20:01:41 10° W 20:09:12 40° NNW 20:11:01 36° N
NOSS 3-4 (A) 4.3 20:23:08 10° WSW 20:28:00 47° WNW 20:28:00 47° WNW
NOSS 3-4 (C) 4.3 20:23:13 10° WSW 20:28:04 47° WNW 20:28:04 47° WNW
CENTAUR R/B 4.3 20:34:08 10° NW 20:41:06 35° WSW 20:44:47 25° SSW
Cosmos 2263 Rocket 4.1 20:36:01 10° NW 20:38:24 24° NW 20:38:24 24° NW
